Home   Weather   Coesfeld   Past weeks

Flag for Germany Past Weather in Coesfeld, North Rhine-Westphalia, Germany — Yesterday and Last 2 Weeks

Now
30 °F

Ice fog.


Feels Like: 25 °F
Forecast: 22 / 30 °F
Wind: 5 mph from South

Location: Rheine-Bentlage

Current Time: Jan 24, 2017 at 10:37:18 am

Latest Report: Jan 24, 2017 at 9:20 am


Visibility: 0 mi

Pressure: 30.36 "Hg

Humidity: 100%

Dew Point: 30 °F

Location of CoesfeldLocation

Past Weather in Coesfeld — Graph

°F

Coesfeld Temperature Yesterday

Maximum temperature yesterday: 32 °F (at 9:20 pm)
Minimum temperature yesterday: 23 °F (at 12:20 am)
Average temperature yesterday: 27 °F

High & Low Weather Summary for the Past Weeks

 TemperatureHumidityPressure
High46 °F (Jan 11, 1:20 pm)100% (Jan 10, 8:51 am)30.74 "Hg (Jan 10, 8:51 am)
Low18 °F (Jan 22, 7:20 am)51% (Jan 20, 5:20 pm)28.97 "Hg (Jan 13, 2:20 am)
Average31 °F88%30.16 "Hg
* Reported Jan 9 9:20 am — Jan 24 9:20 am, Coesfeld, Weather by CustomWeather, © 2017

Note: Actual official high and low records may vary slightly from our data, if they occured in-between our weather recording intervals... More about our weather records

Advertising

Coesfeld Weather History for the Previous 24 Hours

Scroll right to see more
 ConditionsComfort  
Time TempWeatherWind HumidityBarometerVisibility
9:20 am
Tue, Jan 24
30 °FIce fog.5 mph100%30.36 "Hg0 mi
8:34 am30 °FIce fog.3 mph100%30.33 "Hg0 mi
8:20 am30 °FIce fog.2 mph100%30.33 "Hg0 mi
7:20 am30 °FIce fog.2 mph100%30.33 "Hg1 mi
6:20 am32 °FIce fog.2 mph93%30.30 "Hg0 mi
5:20 am32 °FChilly.2 mph93%30.30 "HgN/A
4:20 am32 °FChilly.3 mph93%30.30 "HgN/A
3:20 am32 °FChilly.3 mph93%30.30 "HgN/A
2:20 am30 °FChilly.3 mph100%30.30 "HgN/A
1:20 am30 °FChilly.3 mph100%30.30 "HgN/A
12:20 am32 °FChilly.2 mph93%30.30 "HgN/A
11:20 pm
Mon, Jan 23
32 °FChilly.5 mph87%30.30 "HgN/A
10:20 pm32 °FChilly.5 mph87%30.30 "HgN/A
9:20 pm32 °FChilly.3 mph87%30.30 "HgN/A
8:20 pm30 °FChilly.5 mph93%30.30 "HgN/A
7:20 pm30 °FChilly.5 mph93%30.30 "HgN/A
6:20 pm28 °FChilly.2 mph93%30.30 "HgN/A
5:20 pm28 °FChilly.2 mph93%30.30 "HgN/A
4:20 pm30 °FChilly.3 mph93%30.30 "HgN/A
3:20 pm30 °FChilly.5 mph93%30.30 "HgN/A
2:20 pm30 °FIce fog.3 mph93%30.33 "Hg1 mi
1:20 pm28 °FIce fog.3 mph100%30.33 "Hg1 mi
12:20 pm28 °FIce fog.3 mph93%30.33 "Hg1 mi
11:20 am27 °FIce fog.2 mph100%30.33 "Hg1 mi
10:20 am27 °FIce fog.2 mph93%30.33 "Hg1 mi
Weather by CustomWeather, © 2017

See weather overviewHow to use our weather pages